Time,TemperatureF,DewpointF,PressureIn,WindDirection,WindDirectionDegrees,WindSpeedMPH,WindSpeedGustMPH,Humidity,HourlyPrecipIn,Conditions,Clouds,dailyrainin,SoftwareType,DateUTC
2013-03-11 00:12:00,34.3,18.0,30.16,WNW,288,0.0,-999.0,52,-99.99,,,0.00,weatherlink.com 1.10,2013-03-11 05:12:00,
2013-03-11 00:27:00,34.0,19.0,30.16,WNW,286,0.0,-999.0,54,-99.99,,,0.00,weatherlink.com 1.10,2013-03-11 05:27:00,
2013-03-11 00:42:00,33.6,18.0,30.16,NW,308,0.0,-999.0,54,-99.99,,,0.00,weatherlink.com 1.10,2013-03-11 05:42:00,
2013-03-11 00:57:00,33.7,18.0,30.15,WNW,283,0.0,-999.0,54,-99.99,,,0.00,weatherlink.com 1.10,2013-03-11 05:57:00,
2013-03-11 01:12:00,33.5,18.0,30.15,WNW,294,0.0,-999.0,54,-99.99,,,0.00,weatherlink.com 1.10,2013-03-11 06:12:00,
2013-03-11 01:27:00,32.6,19.0,30.16,WNW,291,0.0,-999.0,57,-99.99,,,0.00,weatherlink.com 1.10,2013-03-11 06:27:00,
2013-03-11 01:42:00,32.3,18.0,30.16,West,269,0.0,-999.0,56,-99.99,,,0.00,weatherlink.com 1.10,2013-03-11 06:42:00,
2013-03-11 01:57:00,31.7,18.0,30.16,West,277,0.0,-999.0,58,-99.99,,,0.00,weatherlink.com 1.10,2013-03-11 06:57:00,
2013-03-11 02:12:00,32.3,18.0,30.15,WNW,288,0.0,-999.0,56,-99.99,,,0.00,weatherlink.com 1.10,2013-03-11 07:12:00,
2013-03-11 02:27:00,32.0,18.0,30.16,WNW,299,0.0,-999.0,57,-99.99,,,0.00,weatherlink.com 1.10,2013-03-11 07:27:00,
2013-03-11 02:43:00,31.8,18.0,30.15,WNW,298,0.0,-999.0,56,-99.99,,,0.00,weatherlink.com 1.10,2013-03-11 07:43:00,
2013-03-11 02:58:00,31.3,18.0,30.15,WNW,285,0.0,-999.0,57,-99.99,,,0.00,weatherlink.com 1.10,2013-03-11 07:58:00,
2013-03-11 03:13:00,30.5,18.0,30.14,WNW,297,0.0,-999.0,59,-99.99,,,0.00,weatherlink.com 1.10,2013-03-11 08:13:00,
2013-03-11 03:28:00,29.2,18.0,30.14,West,279,0.0,-999.0,64,-99.99,,,0.00,weatherlink.com 1.10,2013-03-11 08:28:00,
2013-03-11 03:43:00,28.6,18.0,30.14,West,275,1.0,-999.0,65,-99.99,,,0.00,weatherlink.com 1.10,2013-03-11 08:43:00,
2013-03-11 03:58:00,28.2,18.0,30.14,West,273,0.0,-999.0,65,-99.99,,,0.00,weatherlink.com 1.10,2013-03-11 08:58:00,
2013-03-11 04:13:00,27.6,17.0,30.15,West,281,0.0,-999.0,65,-99.99,,,0.00,weatherlink.com 1.10,2013-03-11 09:13:00,
2013-03-11 04:28:00,29.2,17.0,30.15,WNW,293,7.0,-999.0,61,-99.99,,,0.00,weatherlink.com 1.10,2013-03-11 09:28:00,
2013-03-11 04:43:00,29.2,17.0,30.14,WNW,288,5.0,-999.0,61,-99.99,,,0.00,weatherlink.com 1.10,2013-03-11 09:43:00,
2013-03-11 04:58:00,28.9,17.0,30.14,West,278,5.0,-999.0,61,-99.99,,,0.00,weatherlink.com 1.10,2013-03-11 09:58:00,
2013-03-11 05:13:00,28.5,17.0,30.14,WNW,286,4.0,-999.0,62,-99.99,,,0.00,weatherlink.com 1.10,2013-03-11 10:13:00,
2013-03-11 05:28:00,27.9,17.0,30.14,WNW,296,4.0,-999.0,64,-99.99,,,0.00,weatherlink.com 1.10,2013-03-11 10:28:00,
2013-03-11 05:43:00,27.7,17.0,30.14,WNW,298,3.0,-999.0,64,-99.99,,,0.00,weatherlink.com 1.10,2013-03-11 10:43:00,
2013-03-11 05:58:00,27.5,17.0,30.14,WNW,292,4.0,-999.0,65,-99.99,,,0.00,weatherlink.com 1.10,2013-03-11 10:58:00,
2013-03-11 06:13:00,27.5,17.0,30.14,WNW,287,3.0,-999.0,66,-99.99,,,0.00,weatherlink.com 1.10,2013-03-11 11:13:00,
2013-03-11 06:28:00,26.9,18.0,30.14,WNW,284,0.0,-999.0,68,-99.99,,,0.00,weatherlink.com 1.10,2013-03-11 11:28:00,
2013-03-11 06:43:00,24.9,17.0,30.14,WNW,286,0.0,-999.0,72,-99.99,,,0.00,weatherlink.com 1.10,2013-03-11 11:43:00,
2013-03-11 06:58:00,25.2,18.0,30.14,WNW,288,0.0,-999.0,73,-99.99,,,0.00,weatherlink.com 1.10,2013-03-11 11:58:00,
2013-03-11 07:13:00,24.3,17.0,30.14,WNW,288,0.0,-999.0,74,-99.99,,,0.00,weatherlink.com 1.10,2013-03-11 12:13:00,
2013-03-11 07:28:00,24.1,18.0,30.14,WNW,288,0.0,-999.0,77,-99.99,,,0.00,weatherlink.com 1.10,2013-03-11 12:28:00,
2013-03-11 07:43:00,24.2,18.0,30.14,WNW,287,0.0,-999.0,77,-99.99,,,0.00,weatherlink.com 1.10,2013-03-11 12:43:00,
2013-03-11 07:58:00,24.2,19.0,30.13,WNW,287,0.0,-999.0,79,-99.99,,,0.00,weatherlink.com 1.10,2013-03-11 12:58:00,
2013-03-11 08:13:00,24.0,18.0,30.14,WNW,288,0.0,-999.0,79,-99.99,,,0.00,weatherlink.com 1.10,2013-03-11 13:13:00,
2013-03-11 08:28:00,24.8,19.0,30.15,WNW,288,0.0,-999.0,78,-99.99,,,0.00,weatherlink.com 1.10,2013-03-11 13:28:00,
2013-03-11 08:43:00,25.7,20.0,30.16,WNW,288,0.0,-999.0,78,-99.99,,,0.00,weatherlink.com 1.10,2013-03-11 13:43:00,
2013-03-11 08:58:00,27.8,21.0,30.16,WNW,288,0.0,-999.0,75,-99.99,,,0.00,weatherlink.com 1.10,2013-03-11 13:58:00,
2013-03-11 09:13:00,29.5,22.0,30.15,WNW,288,0.0,-999.0,73,-99.99,,,0.00,weatherlink.com 1.10,2013-03-11 14:13:00,
2013-03-11 09:28:00,33.0,23.0,30.15,West,277,0.0,-999.0,67,-99.99,,,0.00,weatherlink.com 1.10,2013-03-11 14:28:00,
2013-03-11 09:43:00,34.5,21.0,30.14,WNW,298,0.0,-999.0,59,-99.99,,,0.00,weatherlink.com 1.10,2013-03-11 14:43:00,
2013-03-11 09:58:00,35.9,21.0,30.14,WNW,300,0.0,-999.0,54,-99.99,,,0.00,weatherlink.com 1.10,2013-03-11 14:58:00,
2013-03-11 10:13:00,37.1,20.0,30.13,WNW,284,0.0,-999.0,51,-99.99,,,0.00,weatherlink.com 1.10,2013-03-11 15:13:00,
2013-03-11 10:28:00,38.6,20.0,30.13,West,277,0.0,-999.0,48,-99.99,,,0.00,weatherlink.com 1.10,2013-03-11 15:28:00,
2013-03-11 10:43:00,39.6,21.0,30.13,West,259,0.0,-999.0,48,-99.99,,,0.00,weatherlink.com 1.10,2013-03-11 15:43:00,
2013-03-11 10:59:00,40.8,23.0,30.13,West,271,0.0,-999.0,49,-99.99,,,0.00,weatherlink.com 1.10,2013-03-11 15:59:00,
2013-03-11 11:14:00,42.9,24.0,30.13,SW,236,0.0,-999.0,47,-99.99,,,0.00,weatherlink.com 1.10,2013-03-11 16:14:00,
2013-03-11 11:29:00,43.8,23.0,30.12,SSE,159,0.0,-999.0,44,-99.99,,,0.00,weatherlink.com 1.10,2013-03-11 16:29:00,
2013-03-11 11:44:00,45.6,25.0,30.11,East,79,0.0,-999.0,45,-99.99,,,0.00,weatherlink.com 1.10,2013-03-11 16:44:00,
2013-03-11 11:59:00,46.9,24.0,30.11,SW,233,0.0,-999.0,41,-99.99,,,0.00,weatherlink.com 1.10,2013-03-11 16:59:00,
2013-03-11 12:14:00,48.0,26.0,30.11,WNW,299,0.0,-999.0,43,-99.99,,,0.00,weatherlink.com 1.10,2013-03-11 17:14:00,
2013-03-11 12:29:00,49.1,27.0,30.10,West,261,0.0,-999.0,43,-99.99,,,0.00,weatherlink.com 1.10,2013-03-11 17:29:00,
2013-03-11 12:44:00,50.5,26.0,30.09,WSW,246,0.0,-999.0,38,-99.99,,,0.00,weatherlink.com 1.10,2013-03-11 17:44:00,
2013-03-11 12:59:00,52.0,26.0,30.07,WSW,253,0.0,-999.0,37,-99.99,,,0.00,weatherlink.com 1.10,2013-03-11 17:59:00,
2013-03-11 13:14:00,53.6,26.0,30.07,WSW,248,0.0,-999.0,35,-99.99,,,0.00,weatherlink.com 1.10,2013-03-11 18:14:00,
2013-03-11 13:29:00,54.7,27.0,30.06,SW,236,0.0,-999.0,35,-99.99,,,0.00,weatherlink.com 1.10,2013-03-11 18:29:00,
2013-03-11 13:44:00,54.8,29.0,30.05,SSW,211,0.0,-999.0,38,-99.99,,,0.00,weatherlink.com 1.10,2013-03-11 18:44:00,
2013-03-11 13:59:00,56.0,28.0,30.04,West,267,0.0,-999.0,34,-99.99,,,0.00,weatherlink.com 1.10,2013-03-11 18:59:00,
2013-03-11 14:14:00,57.1,29.0,30.03,West,262,0.0,-999.0,34,-99.99,,,0.00,weatherlink.com 1.10,2013-03-11 19:14:00,
2013-03-11 14:29:00,58.3,28.0,30.02,SSW,208,0.0,-999.0,32,-99.99,,,0.00,weatherlink.com 1.10,2013-03-11 19:29:00,
2013-03-11 14:44:00,58.9,29.0,30.01,South,175,0.0,-999.0,32,-99.99,,,0.00,weatherlink.com 1.10,2013-03-11 19:44:00,
2013-03-11 14:59:00,60.2,28.0,30.00,West,259,0.0,-999.0,30,-99.99,,,0.00,weatherlink.com 1.10,2013-03-11 19:59:00,
2013-03-11 15:14:00,61.5,29.0,30.00,SSW,200,0.0,-999.0,29,-99.99,,,0.00,weatherlink.com 1.10,2013-03-11 20:14:00,
2013-03-11 15:30:00,61.5,28.0,30.00,SSW,202,0.0,-999.0,28,-99.99,,,0.00,weatherlink.com 1.10,2013-03-11 20:30:00,
2013-03-11 15:45:00,61.9,29.0,29.98,SSE,150,0.0,-999.0,29,-99.99,,,0.00,weatherlink.com 1.10,2013-03-11 20:45:00,
2013-03-11 16:00:00,63.6,28.0,29.97,SSW,206,0.0,-999.0,26,-99.99,,,0.00,weatherlink.com 1.10,2013-03-11 21:00:00,
2013-03-11 16:15:00,64.5,31.0,29.96,SW,235,0.0,-999.0,29,-99.99,,,0.00,weatherlink.com 1.10,2013-03-11 21:15:00,
2013-03-11 16:30:00,65.2,27.0,29.96,SW,216,0.0,-999.0,24,-99.99,,,0.00,weatherlink.com 1.10,2013-03-11 21:30:00,
2013-03-11 16:45:00,65.6,28.0,29.95,SE,135,0.0,-999.0,24,-99.99,,,0.00,weatherlink.com 1.10,2013-03-11 21:45:00,
2013-03-11 17:00:00,65.8,26.0,29.95,SE,146,0.0,-999.0,22,-99.99,,,0.00,weatherlink.com 1.10,2013-03-11 22:00:00,
2013-03-11 17:15:00,64.8,32.0,29.95,SE,124,0.0,-999.0,29,-99.99,,,0.00,weatherlink.com 1.10,2013-03-11 22:15:00,
2013-03-11 17:30:00,64.1,30.0,29.95,ESE,112,0.0,-999.0,28,-99.99,,,0.00,weatherlink.com 1.10,2013-03-11 22:30:00,
2013-03-11 17:45:00,64.4,30.0,29.94,SE,135,0.0,-999.0,28,-99.99,,,0.00,weatherlink.com 1.10,2013-03-11 22:45:00,
2013-03-11 18:00:00,64.6,31.0,29.93,SE,144,0.0,-999.0,29,-99.99,,,0.00,weatherlink.com 1.10,2013-03-11 23:00:00,
2013-03-11 18:15:00,64.1,32.0,29.94,ESE,115,0.0,-999.0,30,-99.99,,,0.00,weatherlink.com 1.10,2013-03-11 23:15:00,
2013-03-11 18:30:00,62.5,33.0,29.93,ESE,118,0.0,-999.0,33,-99.99,,,0.00,weatherlink.com 1.10,2013-03-11 23:30:00,
2013-03-11 18:45:00,62.2,32.0,29.94,ESE,117,0.0,-999.0,32,-99.99,,,0.00,weatherlink.com 1.10,2013-03-11 23:45:00,
2013-03-11 19:00:00,61.6,33.0,29.94,ESE,107,0.0,-999.0,34,-99.99,,,0.00,weatherlink.com 1.10,2013-03-12 00:00:00,
2013-03-11 19:15:00,60.2,32.0,29.95,East,101,0.0,-999.0,35,-99.99,,,0.00,weatherlink.com 1.10,2013-03-12 00:15:00,
2013-03-11 19:30:00,57.9,34.0,29.95,ESE,114,0.0,-999.0,41,-99.99,,,0.00,weatherlink.com 1.10,2013-03-12 00:30:00,
2013-03-11 19:45:00,55.7,34.0,29.95,ESE,107,0.0,-999.0,44,-99.99,,,0.00,weatherlink.com 1.10,2013-03-12 00:45:00,
2013-03-11 20:00:00,54.0,33.0,29.96,East,101,0.0,-999.0,46,-99.99,,,0.00,weatherlink.com 1.10,2013-03-12 01:00:00,
2013-03-11 20:15:00,52.5,33.0,29.95,East,101,0.0,-999.0,48,-99.99,,,0.00,weatherlink.com 1.10,2013-03-12 01:15:00,
2013-03-11 20:30:00,51.3,33.0,29.96,East,101,0.0,-999.0,50,-99.99,,,0.00,weatherlink.com 1.10,2013-03-12 01:30:00,
2013-03-11 20:45:00,50.4,33.0,29.96,East,101,0.0,-999.0,51,-99.99,,,0.00,weatherlink.com 1.10,2013-03-12 01:45:00,
2013-03-11 21:00:00,49.7,33.0,29.97,East,101,0.0,-999.0,52,-99.99,,,0.00,weatherlink.com 1.10,2013-03-12 02:00:00,
2013-03-11 21:15:00,49.1,33.0,29.96,SE,128,0.0,-999.0,54,-99.99,,,0.00,weatherlink.com 1.10,2013-03-12 02:15:00,
2013-03-11 21:30:00,48.5,32.0,29.96,ESE,115,0.0,-999.0,54,-99.99,,,0.00,weatherlink.com 1.10,2013-03-12 02:30:00,
2013-03-11 21:45:00,46.9,32.0,29.97,ESE,117,0.0,-999.0,57,-99.99,,,0.00,weatherlink.com 1.10,2013-03-12 02:45:00,
2013-03-11 22:00:00,46.7,32.0,29.97,ESE,117,0.0,-999.0,57,-99.99,,,0.00,weatherlink.com 1.10,2013-03-12 03:00:00,
2013-03-11 22:15:00,46.0,32.0,29.97,ESE,115,0.0,-999.0,58,-99.99,,,0.00,weatherlink.com 1.10,2013-03-12 03:15:00,
2013-03-11 22:30:00,45.3,32.0,29.97,ESE,115,0.0,-999.0,59,-99.99,,,0.00,weatherlink.com 1.10,2013-03-12 03:30:00,
2013-03-11 22:45:00,44.4,32.0,29.98,ESE,116,0.0,-999.0,62,-99.99,,,0.00,weatherlink.com 1.10,2013-03-12 03:45:00,
2013-03-11 23:00:00,44.5,32.0,29.98,SE,124,0.0,-999.0,61,-99.99,,,0.00,weatherlink.com 1.10,2013-03-12 04:00:00,
2013-03-11 23:15:00,44.7,32.0,29.97,SE,134,0.0,-999.0,61,-99.99,,,0.00,weatherlink.com 1.10,2013-03-12 04:15:00,
2013-03-11 23:30:00,45.6,31.0,29.97,SE,124,0.0,-999.0,58,-99.99,,,0.00,weatherlink.com 1.10,2013-03-12 04:30:00,
2013-03-11 23:45:00,46.0,31.0,29.98,ESE,119,0.0,-999.0,56,-99.99,,,0.00,weatherlink.com 1.10,2013-03-12 04:45:00,